sat.trackr.live / text

‹ back to catalog

STARLINK-36361

NORAD 67900 · 2026-035X

PAYLOAD ACTIVE UNKNOWN

§ Identity

Operator
Country
US
Launch date
2026-02-21
Launch site
AFWTR
Launch vehicle
Mass (kg)
RCS (m²)

Purposes: comms

External: N2YO · Heavens-Above · Gunter

§ Orbital elements

Epoch: 2026-09-19T13:36:50.380128Z

Period
93.91 min
Inclination
97.2855°
Eccentricity
0.0002433
Mean motion
15.33450671 rev/d
Perigee alt
463.9 km
Apogee alt
467.2 km
Semi-major
6,843.7 km
B*
4.8901e-4
RAAN
194.4858°
Arg perigee
93.3178°
Mean anomaly
266.8343°
Rev number
3,370

§ Raw data

STARLINK-363611 67900U 26035X   26262.56724977  .00015749  00000+0  48901-3 0  99932 67900  97.2855 194.4858 0002433  93.3178 266.8343 15.33450671 33702

JSON: /api/v1/satellites/67900 · /tle

For live sub-satellite position, see the globe view (requires WebGL).

§ Visibility from observer

Set your observer location to see the next 7 days of passes ≥ 10°. The values pass through the URL so the page stays shareable.

No JS? Fill the form by hand. The geolocation button needs JavaScript.